Time,TemperatureF,DewpointF,PressureIn,WindDirection,WindDirectionDegrees,WindSpeedMPH,WindSpeedGustMPH,Humidity,HourlyPrecipIn,Conditions,Clouds,dailyrainin,SoftwareType,DateUTC
2013-06-02 00:02:00,56.0,48.0,29.78,North,-999,-999.0,-999.0,74,-99.99,,,-99.99,,2013-06-02 05:02:00,
2013-06-02 00:12:00,56.0,48.0,29.78,North,-999,-999.0,-999.0,74,-99.99,,,-99.99,,2013-06-02 05:12:00,
2013-06-02 00:22:00,56.0,47.0,29.78,North,-999,-999.0,-999.0,73,-99.99,,,-99.99,,2013-06-02 05:22:00,
2013-06-02 00:32:00,56.0,47.0,29.78,North,-999,-999.0,-999.0,73,-99.99,,,-99.99,,2013-06-02 05:32:00,
2013-06-02 00:42:00,56.0,47.0,29.78,North,-999,-999.0,-999.0,73,-99.99,,,-99.99,,2013-06-02 05:42:00,
2013-06-02 00:52:00,54.0,47.0,29.78,North,-999,-999.0,-999.0,77,-99.99,,,-99.99,,2013-06-02 05:52:00,
2013-06-02 01:01:00,53.0,47.0,29.81,North,-999,-999.0,-999.0,79,-99.99,,,-99.99,,2013-06-02 06:01:00,
2013-06-02 01:12:00,53.0,47.0,29.81,North,-999,-999.0,-999.0,79,-99.99,,,-99.99,,2013-06-02 06:12:00,
2013-06-02 01:21:00,53.0,46.0,29.81,North,-999,-999.0,-999.0,76,-99.99,,,-99.99,,2013-06-02 06:21:00,
2013-06-02 01:32:00,53.0,45.0,29.81,North,-999,-999.0,-999.0,74,-99.99,,,-99.99,,2013-06-02 06:32:00,
2013-06-02 01:42:00,53.0,45.0,29.81,North,-999,-999.0,-999.0,74,-99.99,,,-99.99,,2013-06-02 06:42:00,
2013-06-02 01:52:00,53.0,45.0,29.84,North,-999,-999.0,-999.0,73,-99.99,,,-99.99,,2013-06-02 06:52:00,
2013-06-02 02:01:00,52.0,44.0,29.84,North,-999,-999.0,-999.0,74,-99.99,,,-99.99,,2013-06-02 07:01:00,
2013-06-02 02:11:00,52.0,44.0,29.84,North,-999,-999.0,-999.0,74,-99.99,,,-99.99,,2013-06-02 07:11:00,
2013-06-02 02:21:00,52.0,44.0,29.84,North,-999,-999.0,-999.0,74,-99.99,,,-99.99,,2013-06-02 07:21:00,
2013-06-02 02:32:00,51.0,45.0,29.84,North,-999,-999.0,-999.0,80,-99.99,,,-99.99,,2013-06-02 07:32:00,
2013-06-02 02:42:00,51.0,45.0,29.84,North,-999,-999.0,-999.0,80,-99.99,,,-99.99,,2013-06-02 07:42:00,
2013-06-02 02:52:00,50.0,44.0,29.84,North,-999,-999.0,-999.0,80,-99.99,,,-99.99,,2013-06-02 07:52:00,
2013-06-02 03:01:00,50.0,43.0,29.84,North,-999,-999.0,-999.0,76,-99.99,,,-99.99,,2013-06-02 08:01:00,
2013-06-02 03:11:00,50.0,43.0,29.84,North,-999,-999.0,-999.0,76,-99.99,,,-99.99,,2013-06-02 08:11:00,
2013-06-02 03:21:00,50.0,43.0,29.84,North,-999,-999.0,-999.0,76,-99.99,,,-99.99,,2013-06-02 08:21:00,
2013-06-02 03:32:00,49.0,41.0,29.87,North,-999,-999.0,-999.0,74,-99.99,,,-99.99,,2013-06-02 08:32:00,
2013-06-02 03:41:00,49.0,41.0,29.87,North,-999,-999.0,-999.0,74,-99.99,,,-99.99,,2013-06-02 08:41:00,
2013-06-02 03:52:00,49.0,39.0,29.87,North,-999,-999.0,-999.0,69,-99.99,,,-99.99,,2013-06-02 08:52:00,
2013-06-02 04:01:00,48.0,39.0,29.87,North,-999,-999.0,-999.0,70,-99.99,,,-99.99,,2013-06-02 09:01:00,
2013-06-02 04:11:00,48.0,39.0,29.87,North,-999,-999.0,-999.0,70,-99.99,,,-99.99,,2013-06-02 09:11:00,
2013-06-02 04:21:00,48.0,39.0,29.90,North,-999,-999.0,-999.0,70,-99.99,,,-99.99,,2013-06-02 09:21:00,
2013-06-02 04:33:00,48.0,39.0,29.90,North,-999,-999.0,-999.0,70,-99.99,,,-99.99,,2013-06-02 09:33:00,
2013-06-02 04:42:00,48.0,39.0,29.90,North,-999,-999.0,-999.0,70,-99.99,,,-99.99,,2013-06-02 09:42:00,
2013-06-02 04:53:00,48.0,39.0,29.90,North,-999,-999.0,-999.0,71,-99.99,,,-99.99,,2013-06-02 09:53:00,
2013-06-02 05:02:00,47.0,38.0,29.90,North,-999,-999.0,-999.0,72,-99.99,,,-99.99,,2013-06-02 10:02:00,
2013-06-02 05:12:00,47.0,38.0,29.90,North,-999,-999.0,-999.0,72,-99.99,,,-99.99,,2013-06-02 10:12:00,
2013-06-02 05:22:00,47.0,39.0,29.90,North,-999,-999.0,-999.0,74,-99.99,,,-99.99,,2013-06-02 10:22:00,
2013-06-02 05:32:00,47.0,39.0,29.90,North,-999,-999.0,-999.0,74,-99.99,,,-99.99,,2013-06-02 10:32:00,
2013-06-02 05:42:00,47.0,39.0,29.90,North,-999,-999.0,-999.0,74,-99.99,,,-99.99,,2013-06-02 10:42:00,
2013-06-02 05:52:00,47.0,40.0,29.93,North,-999,-999.0,-999.0,76,-99.99,,,-99.99,,2013-06-02 10:52:00,
2013-06-02 06:02:00,48.0,41.0,29.93,North,-999,-999.0,-999.0,76,-99.99,,,-99.99,,2013-06-02 11:02:00,
2013-06-02 06:12:00,48.0,41.0,29.93,North,-999,-999.0,-999.0,76,-99.99,,,-99.99,,2013-06-02 11:12:00,
2013-06-02 06:21:00,48.0,41.0,29.93,North,-999,-999.0,-999.0,76,-99.99,,,-99.99,,2013-06-02 11:21:00,
2013-06-02 06:32:00,48.0,41.0,29.93,North,-999,-999.0,-999.0,76,-99.99,,,-99.99,,2013-06-02 11:32:00,
2013-06-02 06:42:00,48.0,41.0,29.93,North,-999,-999.0,-999.0,76,-99.99,,,-99.99,,2013-06-02 11:42:00,
2013-06-02 06:52:00,50.0,41.0,29.93,North,-999,-999.0,-999.0,72,-99.99,,,-99.99,,2013-06-02 11:52:00,
2013-06-02 07:01:00,49.0,40.0,29.93,North,-999,-999.0,-999.0,72,-99.99,,,-99.99,,2013-06-02 12:01:00,
2013-06-02 07:11:00,49.0,40.0,29.93,North,-999,-999.0,-999.0,72,-99.99,,,-99.99,,2013-06-02 12:11:00,
2013-06-02 07:21:00,49.0,39.0,29.96,North,-999,-999.0,-999.0,67,-99.99,,,-99.99,,2013-06-02 12:21:00,
2013-06-02 07:32:00,68.0,44.0,29.96,North,-999,-999.0,-999.0,42,-99.99,,,-99.99,,2013-06-02 12:32:00,
2013-06-02 07:42:00,68.0,44.0,29.96,North,-999,-999.0,-999.0,42,-99.99,,,-99.99,,2013-06-02 12:42:00,
2013-06-02 07:52:00,63.0,40.0,29.96,North,-999,-999.0,-999.0,42,-99.99,,,-99.99,,2013-06-02 12:52:00,
2013-06-02 08:01:00,58.0,38.0,29.96,North,-999,-999.0,-999.0,47,-99.99,,,-99.99,,2013-06-02 13:01:00,
2013-06-02 08:11:00,58.0,38.0,29.96,North,-999,-999.0,-999.0,47,-99.99,,,-99.99,,2013-06-02 13:11:00,
2013-06-02 08:21:00,58.0,38.0,29.96,North,-999,-999.0,-999.0,47,-99.99,,,-99.99,,2013-06-02 13:21:00,
2013-06-02 08:32:00,53.0,37.0,29.99,North,-999,-999.0,-999.0,54,-99.99,,,-99.99,,2013-06-02 13:32:00,
2013-06-02 08:42:00,53.0,37.0,29.99,North,-999,-999.0,-999.0,54,-99.99,,,-99.99,,2013-06-02 13:42:00,
2013-06-02 08:52:00,52.0,37.0,29.99,North,-999,-999.0,-999.0,57,-99.99,,,-99.99,,2013-06-02 13:52:00,
2013-06-02 09:02:00,53.0,39.0,29.99,North,-999,-999.0,-999.0,58,-99.99,,,-99.99,,2013-06-02 14:02:00,
2013-06-02 09:11:00,53.0,39.0,29.99,North,-999,-999.0,-999.0,58,-99.99,,,-99.99,,2013-06-02 14:11:00,
2013-06-02 09:21:00,54.0,38.0,29.99,North,-999,-999.0,-999.0,55,-99.99,,,-99.99,,2013-06-02 14:21:00,
2013-06-02 09:32:00,55.0,38.0,29.99,North,-999,-999.0,-999.0,53,-99.99,,,-99.99,,2013-06-02 14:32:00,
2013-06-02 09:42:00,55.0,38.0,29.99,North,-999,-999.0,-999.0,53,-99.99,,,-99.99,,2013-06-02 14:42:00,
2013-06-02 09:52:00,55.0,38.0,30.02,North,-999,-999.0,-999.0,52,-99.99,,,-99.99,,2013-06-02 14:52:00,
2013-06-02 10:01:00,55.0,38.0,30.02,North,-999,-999.0,-999.0,52,-99.99,,,-99.99,,2013-06-02 15:01:00,
2013-06-02 10:11:00,55.0,38.0,30.02,North,-999,-999.0,-999.0,52,-99.99,,,-99.99,,2013-06-02 15:11:00,
2013-06-02 10:21:00,58.0,39.0,30.02,North,-999,-999.0,-999.0,49,-99.99,,,-99.99,,2013-06-02 15:21:00,
2013-06-02 10:32:00,57.0,39.0,30.02,North,-999,-999.0,-999.0,51,-99.99,,,-99.99,,2013-06-02 15:32:00,
2013-06-02 10:43:00,57.0,39.0,30.02,North,-999,-999.0,-999.0,51,-99.99,,,-99.99,,2013-06-02 15:43:00,
2013-06-02 10:53:00,59.0,40.0,30.02,North,-999,-999.0,-999.0,49,-99.99,,,-99.99,,2013-06-02 15:53:00,
2013-06-02 11:03:00,59.0,39.0,30.02,North,-999,-999.0,-999.0,48,-99.99,,,-99.99,,2013-06-02 16:03:00,
2013-06-02 11:13:00,59.0,39.0,30.02,North,-999,-999.0,-999.0,48,-99.99,,,-99.99,,2013-06-02 16:13:00,
2013-06-02 11:23:00,58.0,39.0,30.02,North,-999,-999.0,-999.0,50,-99.99,,,-99.99,,2013-06-02 16:23:00,
2013-06-02 11:33:00,61.0,41.0,30.02,North,-999,-999.0,-999.0,48,-99.99,,,-99.99,,2013-06-02 16:33:00,
2013-06-02 11:42:00,61.0,41.0,30.02,North,-999,-999.0,-999.0,48,-99.99,,,-99.99,,2013-06-02 16:42:00,
2013-06-02 11:53:00,61.0,40.0,30.02,North,-999,-999.0,-999.0,46,-99.99,,,-99.99,,2013-06-02 16:53:00,
2013-06-02 12:02:00,61.0,41.0,30.02,North,-999,-999.0,-999.0,47,-99.99,,,-99.99,,2013-06-02 17:02:00,
2013-06-02 12:12:00,61.0,41.0,30.02,North,-999,-999.0,-999.0,47,-99.99,,,-99.99,,2013-06-02 17:12:00,
2013-06-02 12:22:00,62.0,42.0,30.02,North,-999,-999.0,-999.0,47,-99.99,,,-99.99,,2013-06-02 17:22:00,
2013-06-02 12:32:00,62.0,40.0,30.02,North,-999,-999.0,-999.0,45,-99.99,,,-99.99,,2013-06-02 17:32:00,
2013-06-02 12:42:00,63.0,42.0,30.02,North,-999,-999.0,-999.0,46,-99.99,,,-99.99,,2013-06-02 17:42:00,
2013-06-02 12:52:00,63.0,42.0,30.02,North,-999,-999.0,-999.0,46,-99.99,,,-99.99,,2013-06-02 17:52:00,
2013-06-02 13:01:00,63.0,41.0,30.02,North,-999,-999.0,-999.0,45,-99.99,,,-99.99,,2013-06-02 18:01:00,
2013-06-02 13:11:00,63.0,41.0,30.02,North,-999,-999.0,-999.0,45,-99.99,,,-99.99,,2013-06-02 18:11:00,
2013-06-02 13:21:00,63.0,41.0,30.02,North,-999,-999.0,-999.0,44,-99.99,,,-99.99,,2013-06-02 18:21:00,
2013-06-02 13:32:00,62.0,40.0,30.02,North,-999,-999.0,-999.0,45,-99.99,,,-99.99,,2013-06-02 18:32:00,
2013-06-02 13:42:00,63.0,41.0,30.02,North,-999,-999.0,-999.0,44,-99.99,,,-99.99,,2013-06-02 18:42:00,
2013-06-02 13:52:00,63.0,41.0,30.02,North,-999,-999.0,-999.0,44,-99.99,,,-99.99,,2013-06-02 18:52:00,
2013-06-02 14:01:00,63.0,41.0,30.02,North,-999,-999.0,-999.0,44,-99.99,,,-99.99,,2013-06-02 19:01:00,
2013-06-02 14:11:00,63.0,41.0,30.02,North,-999,-999.0,-999.0,44,-99.99,,,-99.99,,2013-06-02 19:11:00,
2013-06-02 14:21:00,62.0,40.0,30.02,North,-999,-999.0,-999.0,45,-99.99,,,-99.99,,2013-06-02 19:21:00,
2013-06-02 14:32:00,62.0,40.0,30.02,North,-999,-999.0,-999.0,45,-99.99,,,-99.99,,2013-06-02 19:32:00,
2013-06-02 14:42:00,62.0,40.0,30.02,North,-999,-999.0,-999.0,45,-99.99,,,-99.99,,2013-06-02 19:42:00,
2013-06-02 14:52:00,61.0,39.0,30.02,North,-999,-999.0,-999.0,44,-99.99,,,-99.99,,2013-06-02 19:52:00,
2013-06-02 15:02:00,61.0,40.0,30.02,North,-999,-999.0,-999.0,45,-99.99,,,-99.99,,2013-06-02 20:02:00,
2013-06-02 15:11:00,61.0,40.0,30.02,North,-999,-999.0,-999.0,45,-99.99,,,-99.99,,2013-06-02 20:11:00,
2013-06-02 15:22:00,61.0,40.0,30.02,North,-999,-999.0,-999.0,45,-99.99,,,-99.99,,2013-06-02 20:22:00,
2013-06-02 15:32:00,62.0,41.0,29.99,North,-999,-999.0,-999.0,46,-99.99,,,-99.99,,2013-06-02 20:32:00,
2013-06-02 15:42:00,62.0,41.0,29.99,North,-999,-999.0,-999.0,46,-99.99,,,-99.99,,2013-06-02 20:42:00,
2013-06-02 15:52:00,62.0,40.0,29.99,North,-999,-999.0,-999.0,45,-99.99,,,-99.99,,2013-06-02 20:52:00,
2013-06-02 16:01:00,62.0,40.0,29.99,North,-999,-999.0,-999.0,45,-99.99,,,-99.99,,2013-06-02 21:01:00,
2013-06-02 16:12:00,62.0,40.0,29.99,North,-999,-999.0,-999.0,45,-99.99,,,-99.99,,2013-06-02 21:12:00,
2013-06-02 16:21:00,63.0,41.0,29.99,North,-999,-999.0,-999.0,44,-99.99,,,-99.99,,2013-06-02 21:21:00,
2013-06-02 16:33:00,63.0,41.0,29.99,North,-999,-999.0,-999.0,44,-99.99,,,-99.99,,2013-06-02 21:33:00,
2013-06-02 16:42:00,63.0,41.0,29.99,North,-999,-999.0,-999.0,44,-99.99,,,-99.99,,2013-06-02 21:42:00,
2013-06-02 16:53:00,63.0,41.0,29.99,North,-999,-999.0,-999.0,44,-99.99,,,-99.99,,2013-06-02 21:53:00,
2013-06-02 17:03:00,63.0,41.0,29.99,North,-999,-999.0,-999.0,44,-99.99,,,-99.99,,2013-06-02 22:03:00,
2013-06-02 17:12:00,63.0,41.0,29.99,North,-999,-999.0,-999.0,44,-99.99,,,-99.99,,2013-06-02 22:12:00,
2013-06-02 17:23:00,63.0,40.0,29.99,North,-999,-999.0,-999.0,43,-99.99,,,-99.99,,2013-06-02 22:23:00,
2013-06-02 17:33:00,64.0,41.0,29.99,North,-999,-999.0,-999.0,43,-99.99,,,-99.99,,2013-06-02 22:33:00,
2013-06-02 17:42:00,64.0,41.0,29.99,North,-999,-999.0,-999.0,43,-99.99,,,-99.99,,2013-06-02 22:42:00,
2013-06-02 17:53:00,64.0,40.0,29.99,North,-999,-999.0,-999.0,42,-99.99,,,-99.99,,2013-06-02 22:53:00,
2013-06-02 18:02:00,64.0,40.0,29.99,North,-999,-999.0,-999.0,41,-99.99,,,-99.99,,2013-06-02 23:02:00,
2013-06-02 18:12:00,64.0,40.0,29.99,North,-999,-999.0,-999.0,41,-99.99,,,-99.99,,2013-06-02 23:12:00,
2013-06-02 18:22:00,64.0,40.0,29.99,North,-999,-999.0,-999.0,42,-99.99,,,-99.99,,2013-06-02 23:22:00,
2013-06-02 18:32:00,64.0,40.0,29.99,North,-999,-999.0,-999.0,41,-99.99,,,-99.99,,2013-06-02 23:32:00,
2013-06-02 18:42:00,64.0,40.0,29.99,North,-999,-999.0,-999.0,41,-99.99,,,-99.99,,2013-06-02 23:42:00,
2013-06-02 18:52:00,63.0,40.0,29.99,North,-999,-999.0,-999.0,42,-99.99,,,-99.99,,2013-06-02 23:52:00,
2013-06-02 19:01:00,63.0,40.0,29.99,North,-999,-999.0,-999.0,43,-99.99,,,-99.99,,2013-06-03 00:01:00,
2013-06-02 19:11:00,63.0,40.0,29.99,North,-999,-999.0,-999.0,43,-99.99,,,-99.99,,2013-06-03 00:11:00,
2013-06-02 19:21:00,64.0,42.0,29.99,North,-999,-999.0,-999.0,44,-99.99,,,-99.99,,2013-06-03 00:21:00,
2013-06-02 19:32:00,64.0,42.0,29.99,North,-999,-999.0,-999.0,44,-99.99,,,-99.99,,2013-06-03 00:32:00,
2013-06-02 19:42:00,64.0,42.0,29.99,North,-999,-999.0,-999.0,44,-99.99,,,-99.99,,2013-06-03 00:42:00,
2013-06-02 19:52:00,62.0,40.0,29.99,North,-999,-999.0,-999.0,44,-99.99,,,-99.99,,2013-06-03 00:52:00,
2013-06-02 20:01:00,62.0,40.0,29.99,North,-999,-999.0,-999.0,45,-99.99,,,-99.99,,2013-06-03 01:01:00,
2013-06-02 20:11:00,62.0,40.0,29.99,North,-999,-999.0,-999.0,45,-99.99,,,-99.99,,2013-06-03 01:11:00,
2013-06-02 20:21:00,62.0,40.0,29.99,North,-999,-999.0,-999.0,45,-99.99,,,-99.99,,2013-06-03 01:21:00,
2013-06-02 20:32:00,60.0,40.0,29.99,North,-999,-999.0,-999.0,47,-99.99,,,-99.99,,2013-06-03 01:32:00,
2013-06-02 20:42:00,60.0,40.0,29.99,North,-999,-999.0,-999.0,47,-99.99,,,-99.99,,2013-06-03 01:42:00,
2013-06-02 20:52:00,59.0,39.0,29.99,North,-999,-999.0,-999.0,48,-99.99,,,-99.99,,2013-06-03 01:52:00,
2013-06-02 21:02:00,59.0,39.0,29.99,North,-999,-999.0,-999.0,48,-99.99,,,-99.99,,2013-06-03 02:02:00,
2013-06-02 21:12:00,59.0,39.0,29.99,North,-999,-999.0,-999.0,48,-99.99,,,-99.99,,2013-06-03 02:12:00,
2013-06-02 21:22:00,55.0,40.0,29.96,North,-999,-999.0,-999.0,57,-99.99,,,-99.99,,2013-06-03 02:22:00,
2013-06-02 21:32:00,54.0,40.0,29.96,North,-999,-999.0,-999.0,60,-99.99,,,-99.99,,2013-06-03 02:32:00,
2013-06-02 21:42:00,54.0,40.0,29.96,North,-999,-999.0,-999.0,60,-99.99,,,-99.99,,2013-06-03 02:42:00,
2013-06-02 21:52:00,52.0,40.0,29.99,North,-999,-999.0,-999.0,63,-99.99,,,-99.99,,2013-06-03 02:52:00,
2013-06-02 22:02:00,51.0,40.0,29.99,North,-999,-999.0,-999.0,66,-99.99,,,-99.99,,2013-06-03 03:02:00,
2013-06-02 22:12:00,51.0,40.0,29.99,North,-999,-999.0,-999.0,66,-99.99,,,-99.99,,2013-06-03 03:12:00,
2013-06-02 22:22:00,50.0,40.0,29.99,North,-999,-999.0,-999.0,68,-99.99,,,-99.99,,2013-06-03 03:22:00,
2013-06-02 22:33:00,50.0,40.0,29.99,North,-999,-999.0,-999.0,69,-99.99,,,-99.99,,2013-06-03 03:33:00,
2013-06-02 22:43:00,50.0,40.0,29.99,North,-999,-999.0,-999.0,69,-99.99,,,-99.99,,2013-06-03 03:43:00,
2013-06-02 22:53:00,49.0,40.0,29.99,North,-999,-999.0,-999.0,71,-99.99,,,-99.99,,2013-06-03 03:53:00,
2013-06-02 23:03:00,48.0,39.0,29.99,North,-999,-999.0,-999.0,71,-99.99,,,-99.99,,2013-06-03 04:03:00,
2013-06-02 23:13:00,48.0,39.0,29.99,North,-999,-999.0,-999.0,71,-99.99,,,-99.99,,2013-06-03 04:13:00,
2013-06-02 23:23:00,48.0,39.0,29.99,North,-999,-999.0,-999.0,72,-99.99,,,-99.99,,2013-06-03 04:23:00,
2013-06-02 23:33:00,48.0,40.0,29.99,North,-999,-999.0,-999.0,74,-99.99,,,-99.99,,2013-06-03 04:33:00,
2013-06-02 23:42:00,48.0,40.0,29.99,North,-999,-999.0,-999.0,74,-99.99,,,-99.99,,2013-06-03 04:42:00,
2013-06-02 23:53:00,47.0,39.0,29.99,North,-999,-999.0,-999.0,74,-99.99,,,-99.99,,2013-06-03 04:53:00,